{"data":{"norad_id":59337,"intl_designator":"2024-057T","name":"STARLINK-31612","alt_names":[],"object_type":"PAYLOAD","status":"ACTIVE","operator":null,"country":"US","launch_date":"2024-03-25","launch_site_code":"AFETR","launch_vehicle":null,"mission":null,"orbit_class":"UNKNOWN","rcs_meters":null,"size_class":null,"mass_kg":null,"dimensions":null,"purposes":["comms"],"wikipedia_slug":null,"has_3d_model":false,"image_url":null,"decayed_at":null,"tle_current":{"epoch":"2026-09-21T02:17:38.540544Z","epoch_age_seconds":110767,"freshness":"FRESH","line1":"1 59337U 24057T   26264.09558496 -.00001191  00000+0 -33780-4 0  9999","line2":"2 59337  43.0028 163.5424 0000959 274.5570  85.5172 15.27573290139725","mean_motion":15.2757329,"eccentricity":9.59e-5,"inclination_deg":43.0028,"raan_deg":163.5424,"arg_perigee_deg":274.557,"mean_anomaly_deg":85.5172,"bstar":-3.378e-5,"rev_number":13972,"period_min":94.267162788635,"perigee_km":482.41119859366,"apogee_km":483.72717794056,"semimajor_km":6861.2061882671,"source":"CELESTRAK","updated_at":"2026-09-22T09:00:48.901377Z"}}}